Tracking 20369 objects as of 18-Feb-2020
HD Live streaming from Space Station
objects crossing your sky now

NAVSTAR 69 (USA 248)

Track NAVSTAR 69 (USA 248) now!
NAVSTAR 69 (USA 248) is classified as:


NORAD ID: 39533
Int'l Code: 2014-008A
Perigee: 20,075.1 km
Apogee: 20,304.0 km
Inclination: 53.8 °
Period: 718.0 minutes
Semi major axis: 26560 km
RCS: Unknown
Launch date: February 21, 2014
Source: United States (US)
Launch site: AIR FORCE EASTERN TEST RANGE (AFETR)
PRN: 30

USA 248, known also as GPS 2F-5 will become a primary broadcasting satellite in the constellation when it becomes operational by May 2014.
aabbcc
Your satellite tracking list
Your tracking list is empty




NASA's NSSDC Master Catalog

Two Line Element Set (TLE):
1 39533U 14008A   20047.27684740  .00000068  00000-0  00000+0 0  9990
2 39533  53.8089 243.7840 0043094 194.8552 165.0380  2.00561394 43842
Source of the keplerian elements: AFSPC